Location: Peterborough
(44.3091°N, 78.3197°W)
Time: 07:16:40
(UTC-04:00)

Vanguard 2 - Pass Details

Date: 24 March 2023
Orbit: 552 x 2926 km, 32.9° (Epoch: 04 June)

Event Time Altitude Azimuth Distance (km) Brightness Sun altitude
Rises 06:23:49 0° 222° (SW) 6,755 11.9 -8.9°
Reaches altitude 10° 06:28:56 10° 215° (SW) 5,736 11.5 -8.0°
Maximum altitude 06:43:41 36° 158° (SSE) 3,566 11.1 -5.4°
Drops below altitude 10° 06:55:04 10° 98° (E) 4,453 13.1 -3.4°
Sets 06:58:25 0° 90° (E) 5,142 14.8 -2.8°
